Weather History for V.C. Bird, Antigua

Change the Weather History Date:

Thursday, November 15, 2012

  Actual Average Record
Temperature  
Mean Temperature 82 °F -  
Max Temperature 85 °F 82 °F 87 °F (2000)
Min Temperature 78 °F 74 °F 74 °F (2013)
Cooling Degree Days 16    
Growing Degree Days 32 (Base 50)    
Moisture  
Dew Point 73 °F    
Average Humidity 75    
Maximum Humidity 83    
Minimum Humidity 63    
Precipitation  
Precipitation 0.00 in - - ()
Sea Level Pressure  
Sea Level Pressure 29.88 in    
Wind  
Wind Speed 9 mph ()    
Max Wind Speed 14 mph    
Max Gust Speed -    
Visibility 9.0 miles    
Events Rain    
Averages and records for this station are not official NWS values.
T = Trace of Precipitation, MM = Missing Value Source: Averaged Metar Reports

Daily Weather History Graph

Daily Weather History Graph

Search for Another Location

Airport:

Trip Planner

Search our weather history database for the weather conditions in past years. The results will help you decide how hot, cold, wet, or windy it might be!

Date:

Astronomy

Nov. 15, 2012 Rise Set
Actual Time 6:11 AM AST 5:31 PM AST
Civil Twilight 5:49 AM AST 5:54 PM AST
Nautical Twilight 5:22 AM AST 6:20 PM AST
Astronomical Twilight 4:56 AM AST 6:46 PM AST
Moon 7:53 AM AST (11/15) 7:26 PM AST (11/15)
Length of Visible Light 12h 05m
Length of Day
11h 19m
Waxing Crescent, 5% of the Moon is Illuminated
Nov 15
Waxing Crescent
Nov 20
First Quarter
Nov 28
Full
Dec 6
Last Quarter
Dec 13
New

Hourly Weather History & Observations

Time (AST) Temp. Heat Index Dew Point Humidity Pressure Visibility Wind Dir Wind Speed Gust Speed Precip Events Conditions
12:00 AM 80.6 °F 84.6 °F 71.6 °F 74% 29.89 in 6.2 mi East 12.7 mph - N/A   Partly Cloudy
1:00 AM 80.6 °F 83.9 °F 69.8 °F 70% 29.89 in 6.2 mi East 11.5 mph - N/A   Partly Cloudy
2:00 AM 79 °F - 71 °F 72% 29.88 in 17 mi East 12.7 mph - -   Widespread Dust
2:00 AM 78.8 °F - 71.6 °F 78% 29.86 in 6.2 mi East 12.7 mph - N/A   Partly Cloudy
3:00 AM 78.8 °F - 71.6 °F 78% 29.86 in 6.2 mi East 12.7 mph - N/A   Partly Cloudy
4:00 AM 78.8 °F - 71.6 °F 78% 29.86 in 6.2 mi East 8.1 mph - N/A   Partly Cloudy
5:00 AM 79 °F - 72 °F 73% 29.86 in 17 mi East 6.9 mph - -   Widespread Dust
5:00 AM 78.8 °F - 71.6 °F 78% 29.86 in 6.2 mi East 6.9 mph - N/A   Mostly Cloudy
6:00 AM 80.6 °F 84.6 °F 71.6 °F 74% 29.86 in 6.2 mi East 9.2 mph - N/A   Partly Cloudy
7:00 AM 78.8 °F - 73.4 °F 83% 29.89 in 6.2 mi East 6.9 mph - N/A   Partly Cloudy
8:00 AM 81 °F - 74 °F 72% 29.91 in 17 mi East 9.2 mph - - Rain Light Rain Showers
8:00 AM 80.6 °F 85.4 °F 73.4 °F 79% 29.89 in 6.2 mi East 9.2 mph - N/A   Scattered Clouds
9:00 AM 84.2 °F 90.9 °F 73.4 °F 70% 29.92 in 6.2 mi East 9.2 mph - N/A   Scattered Clouds
10:00 AM 84.2 °F 92.3 °F 75.2 °F 74% 29.92 in 6.2 mi East 9.2 mph - N/A   Mostly Cloudy
11:00 AM 85 °F - 74 °F 63% 29.93 in 17 mi East 12.7 mph - -   Partly Cloudy
11:00 AM 84.2 °F 90.9 °F 73.4 °F 70% 29.92 in 6.2 mi East 12.7 mph - N/A   Scattered Clouds
12:00 PM 84.2 °F 90.9 °F 73.4 °F 70% 29.89 in 6.2 mi East 12.7 mph - N/A   Scattered Clouds
1:00 PM 84.2 °F 92.3 °F 75.2 °F 74% 29.89 in 6.2 mi East 13.8 mph - N/A   Scattered Clouds
2:00 PM 84 °F - 75 °F 67% 29.88 in 19 mi East 11.5 mph - -   Mostly Cloudy
2:00 PM 84.2 °F 92.3 °F 75.2 °F 74% 29.86 in 6.2 mi East 11.5 mph - N/A   Mostly Cloudy
3:00 PM 84.2 °F 90.9 °F 73.4 °F 70% 29.86 in 6.2 mi East 10.4 mph - N/A   Mostly Cloudy
4:00 PM 82.4 °F 88.2 °F 73.4 °F 74% 29.86 in 6.2 mi East 8.1 mph - N/A   Scattered Clouds
5:00 PM 82 °F - 74 °F 69% 29.87 in 19 mi ENE 6.9 mph - -   Mostly Cloudy
5:00 PM 82.4 °F 88.2 °F 73.4 °F 74% 29.86 in 6.2 mi ENE 6.9 mph - N/A   Mostly Cloudy
6:00 PM 80.6 °F 85.4 °F 73.4 °F 79% 29.86 in 6.2 mi East 8.1 mph - N/A   Mostly Cloudy
7:00 PM 80.6 °F 85.4 °F 73.4 °F 79% 29.86 in 6.2 mi East 9.2 mph - N/A   Scattered Clouds
8:00 PM 78 °F - 74 °F 82% 29.89 in 14 mi ENE 6.9 mph - - Rain Light Rain
8:00 PM 78.8 °F - 73.4 °F 83% 29.89 in 6.2 mi ENE 6.9 mph - N/A Rain Light Rain
9:00 PM 80.6 °F 85.4 °F 73.4 °F 79% 29.89 in 6.2 mi East 10.4 mph - N/A   Scattered Clouds
10:00 PM 80.6 °F 85.4 °F 73.4 °F 79% 29.89 in 6.2 mi East 10.4 mph - N/A   Mostly Cloudy
11:00 PM 80 °F - 73 °F 74% 29.91 in 19 mi East 8.1 mph - - Rain Light Rain Showers
11:00 PM 78.8 °F - 73.4 °F 83% 29.89 in 6.2 mi East 8.1 mph - N/A   Scattered Clouds